Location: Bagnolo San Vito
(45.0833°N, 10.8833°E)
Time: 00:36:57
(UTC+00:00)

Meteor 1-18 Rocket - Pass Details

Date: 03 March 2021
Orbit: 836 x 909 km, 81.2° (Epoch: 17 April)

Event Time Altitude Azimuth Distance (km) Brightness Sun altitude
Rises 17:48:06 0° 351° (N) 3,550 7.5 -8.1°
Reaches altitude 10° 17:50:37 10° 355° (N) 2,606 6.8 -8.6°
Maximum altitude 17:56:33 65° 77° (ENE) 993 4.3 -9.6°
Drops below altitude 10° 18:02:23 10° 159° (SSE) 2,571 6.5 -10.6°
Sets 18:04:51 0° 162° (SSE) 3,500 7.2 -11.1°
